Flag for South Korea Weather past 2 weeks in Gunsan, South Korea

Now
74 °F

Fog.


Feels Like: 70 °F
Forecast: 71 / 77 °F
Wind: 5 mph from Southeast

Location: Kunsan Ab

Current Time: Sep 4, 2015 at 9:34:24 AM

Latest Report: Sep 4, 2015 at 8:58 AM


Visibility: 4 mi

Pressure: 29.95 "Hg

Humidity: 98%

Dew point: 74 °F

Location of GunsanLocation

Historic Weather in Gunsan — Graph

°F

Gunsan temperature yesterday

Maximum temperature yesterday: 81 °F (at 2:58 PM)
Minimum temperature yesterday: 68 °F (at 5:58 AM)
Average temperature yesterday: 73 °F

Past Weeks' High & Low Weather Summary

 TemperatureHumidityPressure
High86 °F (Sep 1, 1:58 PM)100% (Aug 20, 7:58 AM)29.94 "Hg (Aug 20, 7:58 AM)
Low67 °F (Aug 29, 5:58 AM)47% (Aug 26, 4:58 PM)29.50 "Hg (Aug 25, 8:58 AM)
Average76 °F84%29.77 "Hg
* Reported Aug 20 7:58 AM — Sep 4 7:58 AM, Gunsan, Weather by CustomWeather, © 2015

Note: Actual official high and low records may vary slightly from our data, if they occured in-between our weather recording intervals... More about our weather records

Advertising

Gunsan weather history for previous 24 hours

 ConditionsComfort  
Time TempWeatherWind HumidityBarometerVisibility
7:58 AM
Fri, Sep 4
71 °FFog.6 mph100%29.94 "Hg3 mi
6:58 AM67 °FFog.5 mph100%29.94 "Hg4 mi
5:58 AM67 °FFog.3 mph100%29.93 "Hg6 mi
4:58 AM68 °FClear.No wind100%29.92 "Hg7 mi
3:58 AM68 °FFog.No wind100%29.91 "Hg6 mi
2:58 AM70 °FClear.No wind100%29.92 "Hg9 mi
1:58 AM69 °FClear.2 mph100%29.91 "Hg10 mi
12:58 AM71 °FClear.No wind97%29.92 "Hg10 mi
11:58 PM
Thu, Sep 3
71 °FClear.3 mph96%29.92 "Hg10 mi
10:58 PM71 °FClear.7 mph91%29.92 "Hg10 mi
9:58 PM71 °FClear.6 mph88%29.91 "Hg10 mi
8:58 PM73 °FClear.8 mph86%29.90 "Hg10 mi
7:58 PM73 °FClear.9 mph84%29.89 "Hg10 mi
6:58 PM74 °FSunny.9 mph76%29.87 "Hg10 mi
5:58 PM78 °FSunny.9 mph73%29.86 "Hg10 mi
4:58 PM80 °FSunny.13 mph68%29.85 "Hg10 mi
3:58 PM81 °FPassing clouds.15 mph67%29.84 "Hg10 mi
2:58 PM81 °FSunny.13 mph66%29.84 "Hg10 mi
1:58 PM80 °FPassing clouds.14 mph69%29.85 "Hg10 mi
12:58 PM80 °FFog.12 mph74%29.86 "Hg6 mi
11:58 AM79 °FFog.12 mph79%29.87 "Hg6 mi
10:58 AM78 °FFog.9 mph83%29.89 "Hg6 mi
9:58 AM76 °FFog.2 mph90%29.89 "Hg4 mi
Weather by CustomWeather, © 2015

See weather overviewHow to use our weather pages